DECAYED

NOAA 17 DEB, 48714 (Decayed)

Orbit data source: Space-Track

NOAA 17 DEB, 48714 was space debris in SSO originally from a launch on Mon, 24 Jun 2002 UTC launched from the Air Force Western Test Range (AFWTR). Debris objects in space refer to the collection of defunct objects orbiting the Earth. Examples of debris include non-operational satellites, rocket bodies, and fragments generated from explosions, collisions, or faulty payload assembly.

Not visible in the next 10 days
Identifier
48714, 2002-032AX
Orbit
Decayed
Country
Flag of USUS
Related business
Manufacturer
Unknown
Mission
Decayed spacecraft
Bus & Motor
Unknown
Mass
Unknown
Launch date (UTC)
2002-06-24 (24 years ago)
Launch vehicle
Unknown
Launch site
Air Force Western Test Range (AFWTR)
Object type
Payload
Rocket body
Debris
Shape & HBR
Unknown shape, 0.1 m
Radar Cross Section
Small (<0.1 m²)

Expand to show TLE details & history
Last TLE update: 6 months ago

TLE from 6 months ago
0 NOAA 17 DEB
1 48714U 02032AX  25357.86516766  .00651943  00000-0  11313-1 0  9996
2 48714  98.4452 326.4032 0021814 102.5020 257.8669 15.48267541251693
Epoch: 2025-12-23T20:45Z
TLE epoch observation values (Epoch: 2025-12-23T20:45:50.485Z)
Latitude
-0.00008°
Longitude
-77.69992°
Altitude
428.04 km
Speed
7.653 km/s
True Right ascension
21h 45m 36s
True Declination
0° 00' 00"
Sunlit
Object was in daylight at epoch
Visualization orbit readout
Latitude
Unknown
Longitude
Unknown
Altitude
Unknown
Speed
Unknown
Apparent Right ascension
Unknown
Apparent Declination
Unknown
Sunlit
N/A
Visualization observer readout
Local Sidereal Time
21:40:05
Azimuth
Unknown
Elevation
Unknown
Doppler factor
Unknown
Orbital elements
Apogee altitude
433.597 km
Perigee altitude
403.943 km
Semi-major axis
6,796.907 km
Eccentricity
0.00218
Inclination
98.4452°
RAAN
326.4032°
Arg. of periapsis
102.502°
True anomaly
257.62265°
Mean anomaly
257.8669°
Eccentric anomaly
257.74476°
Mean motion
3.87326 °/min
Orbital period
92.95 mins
BSTAR
0.011313
Loading maneuver chart data...
Computing Atmospheric mass density...

Documentation

Showing up to 5 results
|